Regional Weather Roundup
Issued by NWS Lake Charles, LA

Home | Current Version | Previous Version | Text Only | Print | Product List | Glossary On
Versions: 1 2 3 4 5 6 7 8 9 10 11 12 13 14 15 16 17 18 19 20 21 22 23 24 25 26 27 28 29 30 31 32 33 34 35 36 37 38 39 40 41 42 43 44 45 46 47 48 49 50
000
ASUS44 KLCH 010010
RWRLCH
RWRLCH
REGIONAL WEATHER ROUNDUP
NATIONAL WEATHER SERVICE LAKE CHARLES LA
700 PM CDT THU JUL 31 2014

Note: "fair" indicates few or no clouds below 12,000 feet with no
significant weather and/or obstructions to visibility.


ACROSS SOUTHEAST TEXAS

CITY           SKY/WX    TMP DP  RH WIND       PRES   REMARKS
BEAUMONT       CLOUDY    85  75  72 S8        29.91F
BEAUMONT CITY    N/A     85  76  74 SE9       29.91F
ORANGE         CLOUDY    84  74  72 S7        29.94S
JASPER         CLOUDY    79  74  85 E5        29.94F
$$

ACROSS CENTRAL LOUISIANA

CITY           SKY/WX    TMP DP  RH WIND       PRES   REMARKS
LEESVILLE      CLOUDY    80  73  79 E7        29.95F
FULLERTON        N/A     82  73  74 CALM      29.94S
ALEXANDRIA INT CLOUDY    80  71  74 E12       29.95F
ESLER FIELD    CLOUDY    80  71  74 E5        29.98F
DERIDDER         N/A     81  73  76 CALM      29.96F
OAKDALE        CLOUDY    81  76  86 CALM      29.96S
OPELOUSAS        N/A     82  73  72 E3        29.96F
$$

ACROSS SOUTHWEST AND SOUTH CENTRAL LOUISIANA

CITY           SKY/WX    TMP DP  RH WIND       PRES   REMARKS
SULPHUR        CLOUDY    86  73  66 SE8       29.94F
LAKE CHARLES   CLOUDY    85  73  67 S5        29.94F
CHENNAULT INT  PTSUNNY   84  73  70 SE6       29.96S
CAMERON PHI    CLEAR     84  75  74 S14       29.94F
DEQUINCY         N/A     82  74  76 SE5       29.94S
JENNINGS         N/A     84  73  68 SE5       29.95F
LAFAYETTE      CLOUDY    85  74  69 CALM      29.97S
NEW IBERIA     CLOUDY    85  70  60 SW5       29.98R
ABBEVILLE        N/A     83  73  72 SE5       29.97S
PATTERSON      PTSUNNY   81  75  83 SE5       30.01F
SALT POINT       N/A     88  73  61 VRB3      29.97S
$$

SELECTED SITES ACROSS THE REGION

CITY           SKY/WX    TMP DP  RH WIND       PRES   REMARKS
HOUSTON BUSH   PTSUNNY   88  73  61 S9        29.89F
HOUSTON HOBBY  PTSUNNY   87  76  69 S10       29.90F
GALVESTON      MOSUNNY   87  77  72 S14       29.92F
COLLEGE STAT   LGT RAIN  80  74  81 SE7       29.91S
CONROE         PTSUNNY   83  74  74 S10       29.89F
HUNTSVILLE     TSTM      88  75  65 VRB3      29.88F
LUFKIN         TSTM      77  74  90 E12       29.91F FOG
SHREVEPORT     CLOUDY    73  70  90 E8        29.95S
MONROE         LGT RAIN  76  68  76 NE3       30.02S
NATCHEZ MS     CLOUDY    75  66  73 E5        30.02S
BATON ROUGE    PTSUNNY   82  68  62 NE7       29.98S
N.O. INTL ARPT PTSUNNY   83  61  47 N7        29.99S
SLIDELL        PTSUNNY   83  66  56 CALM      29.99R
$$

MARINE REPORTS

STATION/POSITION TIME  TEMP    WIND        PRES    VSBY  WAVE
                       AIR SEA DIR/SP/G                  HT/PER
                 (UTC) (F)     (DEG/KT/KT) (MB)    (MI)  (FT/S)
BUOY 30 S HIGH I NOT AVBL
SEA RIM ST PARK  0000   85     170/  9/ 12 1014.0F
PORT ARTHUR      0000      88  180/  6/ 11 1013.5S
SABINE PASS N    0000   85 88  180/ 11/ 13 1013.7S
TEXAS POINT      0000   84 87  160/ 12/ 14 1013.8S
CALCASIEU PASS   0000   84 87  170/ 12/ 13 1014.9F
LK CHARLES BEACH 0000   85 85              1014.6S
MARSH ISLAND     2300   85     190/  6/  8   N/A
FRESH WATER LOCK 0000   84 88  140/  5/  7 1014.8F
AMERADA PASS     0000   83 87  140/  5/  8 1014.9F
$$


USA.gov is the U.S. government's official web portal to all federal, state and local government web resources and services.